{"data":{"norad_id":57748,"intl_designator":"2023-131S","name":"STARLINK-30356","alt_names":[],"object_type":"PAYLOAD","status":"ACTIVE","operator":null,"country":"US","launch_date":"2023-09-01","launch_site_code":"AFETR","launch_vehicle":null,"mission":null,"orbit_class":"UNKNOWN","rcs_meters":null,"size_class":null,"mass_kg":null,"dimensions":null,"purposes":["comms"],"wikipedia_slug":null,"has_3d_model":false,"image_url":null,"decayed_at":null,"tle_current":{"epoch":"2026-05-25T03:32:53.640384Z","epoch_age_seconds":72668,"freshness":"FRESH","line1":"1 57748U 23131S   26145.14784306  .00001019  00000+0  46563-4 0  9990","line2":"2 57748  43.0036 100.3237 0001233 269.9154  90.1557 15.27579351151616","mean_motion":15.27579351,"eccentricity":0.0001233,"inclination_deg":43.0036,"raan_deg":100.3237,"arg_perigee_deg":269.9154,"mean_anomaly_deg":90.1557,"bstar":4.6563e-5,"rev_number":15161,"period_min":94.266788763368,"perigee_km":482.20505489456,"apogee_km":483.89702386507,"semimajor_km":6861.1880393798,"source":"CELESTRAK","updated_at":"2026-05-25T13:38:18.402121Z"}}}